Regional Weather Roundup
Issued by NWS

Home | Current Version | Previous Version | Graphics & Text | Print | Product List | Glossary On
Versions: 1 2 3 4 5 6 7 8 9 10 11 12 13 14 15 16 17 18 19 20 21 22 23 24 25 26 27 28 29 30 31 32 33 34 35 36 37 38 39 40 41 42 43 44 45 46 47 48 49 50
000
ASUS43 KOAX 272202
RWRNE

WEATHER ROUNDUP FOR NEBRASKA
NATIONAL WEATHER SERVICE OMAHA NE
500 PM CDT SUN JUL 27 2014

NOTES: SATELLITE DATA IS BEING USED TO AUGMENT CLOUD COVER ABOVE
       12000 FEET.
       "FAIR" INDICATES FEW OR NO CLOUDS BELOW 12,000 FEET WITH NO
       SIGNIFICANT WEATHER AND/OR OBSTRUCTIONS TO VISIBILITY.

  * THESE STATIONS DO NOT REPORT WEATHER SUCH AS RAIN...SNOW OR FOG.

NEZ001>004-019>022-054>056-272300-
NEBRASKA PANHANDLE

CITY           SKY/WX    TMP DP  RH WIND       PRES   REMARKS
SCOTTSBLUFF    SUNNY     85  52  32 VRB5      30.29F
ALLIANCE       SUNNY     86  47  25 NE8       30.28F
CHADRON        SUNNY     87  46  24 E9        30.24F
KIMBALL        SUNNY     82  47  29 N3        30.32F
SIDNEY         SUNNY     86  42  21 VRB5      30.32F
$$

NEZ057>060-069>072-079>082-272300-
SOUTHWEST NEBRASKA

CITY           SKY/WX    TMP DP  RH WIND       PRES   REMARKS
NORTH PLATTE   MOSUNNY   87  48  25 N10       30.21F
IMPERIAL       LGT RAIN  87  46  24 MISG      30.26F
LEXINGTON      SUNNY     87  52  30 N9        30.20F
MCCOOK         SUNNY     89  46  22 N7        30.21F
OGALLALA       SUNNY     85  47  26 E7        30.25F
$$

NEZ005>010-023>029-035>040-094-272300-
NORTH CENTRAL NEBRASKA

CITY           SKY/WX    TMP DP  RH WIND       PRES   REMARKS
VALENTINE      SUNNY     84  49  29 N16G26    30.24S
AINSWORTH      SUNNY     81  49  32 NW10G22   30.23S
BROKEN BOW     SUNNY     84  51  31 N17G24    30.20F
O`NEILL        MOSUNNY   82  48  31 N13G18    30.19S
ORD            SUNNY     83  53  35 N12G23    30.17F
THEDFORD       SUNNY     85  48  27 N16G25    30.25S
$$

NEZ041-046>049-061>064-073>077-083>087-272300-
SOUTH CENTRAL NEBRASKA

CITY           SKY/WX    TMP DP  RH WIND       PRES   REMARKS
GRAND ISLAND   SUNNY     87  51  28 N17G24    30.17F
AURORA         SUNNY     83  56  39 N13G21    30.15F
HASTINGS       SUNNY     85  50  29 N13G22    30.17F
HEBRON         SUNNY     85  50  29 NW10      30.15S
HOLDREGE       SUNNY     84  51  31 N6        30.20S
KEARNEY *      SUNNY     86  52  30 N18G24    30.19S
YORK           SUNNY     82  59  44 N10G20    30.15S
$$

NEZ011>018-030>034-042>045-272300-
NORTHEAST NEBRASKA

CITY           SKY/WX    TMP DP  RH WIND       PRES   REMARKS
NORFOLK        SUNNY     81  56  42 N15       30.14F
ALBION         SUNNY     80  55  42 N13G20    30.17R
BLAIR          PTSUNNY   78  56  47 N10G22    30.11R
COLUMBUS *     MOSUNNY   81  57  44 N15       30.14F
FREMONT        SUNNY     81  55  40 N15G24    30.13R
WAYNE          PTSUNNY   78  60  53 NW15G21   30.15S
$$

NEZ050>053-065>068-078-088>093-272300-
SOUTHEAST NEBRASKA

CITY           SKY/WX    TMP DP  RH WIND       PRES   REMARKS
LINCOLN        MOSUNNY   86  55  34 N21G28    30.12S
OMAHA EPPLEY   MOSUNNY   80  56  43 NW20G29   30.09R
BEATRICE       SUNNY     84  61  45 NW14G22   30.12S
NEBRASKA CITY  SUNNY     81  56  42 N16G23    30.10R
PLATTSMOUTH    SUNNY     82  53  37 NW14G20   30.09S
$$

NEZ044-045-051>053-067-272300-
OMAHA AREA

CITY           SKY/WX    TMP DP  RH WIND       PRES   REMARKS
OMAHA EPPLEY   MOSUNNY   80  56  43 NW20G29   30.09R
BLAIR          PTSUNNY   78  56  47 N10G22    30.11R
FREMONT        SUNNY     81  55  40 N15G24    30.13R
MILLARD        SUNNY     81  56  42 NW20G31   30.09S
OFFUTT AFB     MOSUNNY   82  58  43 NW14G21   30.08S
PLATTSMOUTH    SUNNY     82  53  37 NW14G20   30.09S
WAHOO          FAIR      81  55  41 N15G22    30.12S
$$


USA.gov is the U.S. government's official web portal to all federal, state and local government web resources and services.